Flag for Poland Weather past 2 weeks in Koszalin, Poland

Now
40 °F

Passing clouds.


Feels Like: 40 °F
Forecast: 34 / 58 °F
Wind: No wind

Location: Koszalin


UV Index: 3 (Moderate)

Visibility: 16 mi


Pressure: 30.41 "Hg

Humidity: 86%

Dew point: 37 °F

Location of KoszalinLocation

Historic Weather in Koszalin

°F

Koszalin temperature yesterday

Maximum temperature yesterday: 46 °F (at 2:00 PM)
Minimum temperature yesterday: 38 °F (at 11:00 PM)
Average temperature yesterday: 43 °F

Past Weeks' High & Low Weather Summary

 TemperatureHumidityPressure
High64 °F (Apr 8, 11:00 AM)99% (Apr 11, 7:00 AM)30.45 "Hg (Apr 11, 7:00 AM)
Low32 °F (Apr 2, 6:00 AM)29% (Apr 2, 3:00 PM)29.56 "Hg (Apr 14, 1:00 PM)
Average46 °F75%29.96 "Hg
* Reported Apr 1 8:00 PM — Apr 16 8:00 PM, Koszalin, Weather by CustomWeather, © 2014

Note: Actual official high and low records may vary slightly from our data, if they occured in-between our weather recording intervals... More about our weather records

Advertising

Historic Weather Conditions — Data for Previous 24 hours

 ConditionsComfort  
Time TempWeatherWind HumidityBarometerVisibility
8:00 PM
Apr 16
44 °FPassing clouds.1 mph77%30.40 "Hg22 mi
7:00 PM46 °FPassing clouds.2 mph73%30.40 "Hg25 mi
6:00 PM48 °FPassing clouds.3 mph65%30.41 "Hg22 mi
5:00 PM48 °FPassing clouds.5 mph67%30.42 "Hg19 mi
4:00 PM49 °FPassing clouds.5 mph62%30.42 "Hg19 mi
3:00 PM49 °FPassing clouds.6 mph47%30.42 "Hg18 mi
2:00 PM49 °FPassing clouds.6 mph47%30.44 "Hg12 mi
1:00 PM48 °FPassing clouds.5 mph54%30.44 "Hg18 mi
12:00 PM48 °FPassing clouds.3 mph49%30.45 "Hg17 mi
11:00 AM47 °FPassing clouds.3 mph35%30.44 "Hg19 mi
10:00 AM46 °FPassing clouds.3 mph39%30.43 "Hg22 mi
9:00 AM45 °FPassing clouds.3 mph55%30.42 "Hg25 mi
8:00 AM43 °FSunny.3 mph69%30.40 "Hg25 mi
7:00 AM40 °FSunny.2 mph74%30.38 "Hg25 mi
6:00 AM39 °FSunny.2 mph79%30.37 "Hg31 mi
5:00 AM39 °FClear.3 mph79%30.34 "Hg31 mi
4:00 AM38 °FClear.2 mph84%30.33 "Hg31 mi
3:00 AM37 °FClear.2 mph90%30.31 "Hg22 mi
2:00 AM37 °FPassing clouds.2 mph96%30.31 "Hg17 mi
11:00 PM
Apr 15
38 °FPassing clouds.1 mph90%30.25 "Hg12 mi
10:00 PM40 °FPassing clouds.1 mph87%30.22 "Hg16 mi
9:00 PM42 °FOvercast.3 mph85%30.20 "Hg18 mi
Weather by CustomWeather, © 2014

See weather overview